Regional Weather Roundup
Issued by NWS Sioux Falls, SD

Home | Current Version | Previous Version | Graphics & Text | Print | Product List | Glossary On
Versions: 1 2 3 4 5 6 7 8 9 10 11 12 13 14 15 16 17 18 19 20 21 22 23 24 25 26 27 28 29 30 31 32 33 34 35 36 37 38 39 40 41 42 43 44 45 46 47 48 49 50
000
ASUS43 KFSD 300310
RWRFSD

WEATHER ROUNDUP FOR SE SOUTH DAKOTA/SW MINNESOTA/NW IOWA
NATIONAL WEATHER SERVICE SIOUX FALLS SD
1000 PM CDT TUE JUL 29 2014

NOTE: "FAIR" INDICATES FEW OR NO CLOUDS BELOW 12,000 FEET WITH NO
SIGNIFICANT WEATHER AND OR OBSTRUCTIONS TO VISIBILITY.


SDZ038>040-050-052>070-300400-
SOUTHEAST SOUTH DAKOTA

CITY           SKY/WX    TMP DP  RH WIND       PRES   REMARKS
CHAMBERLAIN    PTCLDY    67  53  58 E3        30.14R
HURON          CLEAR     63  55  75 NE3       30.12R
MADISON        FAIR      59  59 100 CALM      30.14R
MITCHELL       CLEAR     68  54  60 CALM      30.13R
SIOUX FALLS    PTCLDY    64  54  69 CALM      30.13R
WINNER         FAIR      70  50  49 SE5       30.15R
YANKTON        CLEAR     64  55  72 CALM      30.13S
$$

MNZ071-072-080-081-089-090-097-098-300400-
SOUTHWEST MINNESOTA

CITY           SKY/WX    TMP DP  RH WIND       PRES   REMARKS
FAIRMONT       CLEAR     64  50  59 NW5       30.10R
JACKSON        CLEAR     59  55  88 CALM      30.13R
LUVERNE        CLEAR     63  55  77 CALM      30.13R
MARSHALL       CLEAR     61  54  77 NW5       30.10S
MONTEVIDEO     CLEAR     66  55  68 NW3       30.11R
PIPESTONE      CLEAR     66  55  68 CALM      30.13S
REDWOOD FALLS  CLEAR     65  55  70 W5        30.09R
TRACY          CLEAR     64  55  72 NW3       30.12R
WINDOM         CLEAR     61  55  82 W3        30.12R
WORTHINGTON    CLEAR     61  55  82 CALM      30.14R
$$

IAZ001>003-012>014-020>022-031-032-NEZ013-014-SDZ071-300400-
NORTHWEST IOWA

CITY           SKY/WX    TMP DP  RH WIND       PRES   REMARKS
CHEROKEE       CLEAR     60  57  89 CALM      30.12R
DENISON        CLEAR     61  59  94 E3        30.11R
ESTHERVILLE    CLEAR     61  56  83 NW5       30.11R
LE MARS        CLEAR     61  57  88 CALM      30.13R
ORANGE CITY    CLEAR     64  55  72 CALM      30.13R
SHELDON        CLEAR     57  55  94 CALM      30.12R
SIOUX CITY     CLEAR     61  57  87 CALM      30.13R
SPENCER        CLEAR     60  57  89 NW5       30.12R
STORM LAKE     CLEAR     61  57  88 NW5       30.14R
$$

ABBREVIATIONS USED IN REMARKS
   TC - TEMPERATURE IN CELSIUS
  WCI - WIND CHILL INDEX
   HX - HEAT INDEX
  VSB - VISIBILITY



USA.gov is the U.S. government's official web portal to all federal, state and local government web resources and services.